Starlink 30847

operational
NORAD ID: 58239 Int'l Des: 2023-171 Owner: SPXS Country: US Constellation: starlink
LEOCIRCULAR

About Starlink 30847

Description loading...

Live Position

Loading 3D Globe...

Upcoming Passes

Altitude History

Altitude vs Time

uPlot chart will show altitude changes over time

Two-Line Element Set

1 58239U 23171K 25258.00386051 .00000298 00000-0 37097-4 0 9995
2 58239 43.0044 160.9748 0001124 264.1320 95.9395 15.02535133103298
Epoch: Sep 15, 2025 • Age: 26 hours

Current Status

Altitude 563.0 km
Velocity 7.59 km/s
Sub-Earth Point 42.87°N, 148.18°W
Launch Date Nov 8, 2023
Age 1.8 years
Type internet

Technical Details

Classification Payload
Mass 730.00 kg
Dry Mass 700.00 kg
Total Mass 730.00 kg
Length 0.30 m
Diameter 4.10 m
Span 29.00 m
Shape Box + pan
Manufacturer SPXS
Bus Type Starlink V2M
Phase Status In Orbit
Owner/State SPXS/US

Large Constellations

Loading constellations...